Regional Weather Roundup
Issued by NWS

Home | Current Version | Previous Version | Graphics & Text | Print | Product List | Glossary Off
Versions: 1 2 3 4 5 6 7 8 9 10 11 12 13 14 15 16 17 18 19 20 21 22 23 24 25 26 27 28 29 30 31 32 33 34 35 36 37 38 39 40 41 42 43 44 45 46 47 48 49 50

000
ASUS44 KMEG 271010
RWRTN
TENNESSEE HOURLY STATE WEATHER ROUNDUP
NATIONAL WEATHER SERVICE MEMPHIS TN
500 AM CDT WED AUG 27 2014

TNZ002-004-019-021-049-052-054-088>092-271100-
WEST TENNESSEE

CITY           SKY/WX    TMP DP  RH WIND       PRES   REMARKS
MEMPHIS INTL   PTCLDY    78  67  68 VRB3      30.07R
NWS MEMPHIS      N/A     71 N/A N/A MISG        N/A
JACKSON        FOG       70  66  88 CALM      30.07S VSB 1/4
DYERSBURG      CLEAR     72  63  73 CALM      30.08R
UNION CITY       N/A     70  70 100 CALM      30.06S VSB 1/2
PARIS            N/A     68  66  94 CALM      30.08S VSB 3/4
HUNTINGDON     CLEAR     70  69  96 CALM      30.08R
LEXINGTON      CLOUDY    66  66 100 CALM      30.07S VSB 1/4
SAVANNAH       CLEAR     64  64 100 CALM      30.08S
$$

TNZ008-025-027-028-033-062-065-066-271100-
NORTH MIDDLE TENNESSEE

CITY           SKY/WX    TMP DP  RH WIND       PRES   REMARKS
NASHVILLE      MOCLDY    72  69  90 CALM      30.09R
DICKSON        PTCLDY    70  68  94 CALM      30.09S
PORTLAND       CLEAR     68  68 100 CALM      30.08S
CLARKSVILLE    PTCLDY    70  69  97 CALM      30.08R FOG
LEBANON        CLEAR     68  67  96 CALM      30.08R
SMYRNA         CLEAR     68  68 100 CALM      30.09S
MURFREESBORO   CLEAR     69  67  93 CALM      30.09R
COOKEVILLE     CLOUDY    64  64 100 CALM      30.10S VSB 1/4
GALLATIN       CLEAR     70  70 100 CALM      30.10R
CROSSVILLE     CLEAR     69  60  73 CALM      30.14S HAZE
$$

TNZ061-075-076-078-094-096-097-271100-
SOUTH MIDDLE TENNESSEE

CITY           SKY/WX    TMP DP  RH WIND       PRES   REMARKS
LEWISBURG      CLEAR     64  62  93 CALM      30.08F
FAYETTEVILLE   CLEAR     64  64 100 CALM      30.10S
TULLAHOMA      CLEAR     64  63  94 CALM      30.11S
WINCHESTER     CLEAR     63  63 100 CALM      30.10S
MCMINNVILLE    CLOUDY    64  64 100 CALM      30.11R VSB 1/2
COLUMBIA         N/A     66  66 100 CALM      30.08R
SHELBYVILLE      N/A     66  66 100 CALM      30.10S VSB 3/4
$$

TNZ017-018-042-046-047-271100-
NORTHEAST TENNESSEE

CITY           SKY/WX    TMP DP  RH WIND       PRES   REMARKS
TRI CITIES     CLEAR     57  54  89 CALM      30.13S
ELIZABETHTON   SUNNY     54  54 100 CALM      30.14R
$$

TNZ012-013-036-069-073-074-271100-
CENTRAL EAST TENNESSEE

CITY           SKY/WX    TMP DP  RH WIND       PRES   REMARKS
KNOXVILLE      PTCLDY    64  63  96 CALM      30.09R
OAK RIDGE      FOG       66  65  96 CALM      30.11S VSB 1/2
GATLINBURG     SUNNY     61  59  94 CALM      30.11R
MORRISTOWN     SUNNY     63  63 100 CALM      30.12S
$$

TNZ083-085-099-271100-
SOUTHEAST TENNESSEE

CITY           SKY/WX    TMP DP  RH WIND       PRES   REMARKS
CHATTANOOGA    CLEAR     68  64  87 CALM      30.09S
$$

SKY/WX REPORTED AS FAIR MEANS FEW OR NO CLOUDS BELOW
12 THOUSAND FEET.



USA.gov is the U.S. government's official web portal to all federal, state and local government web resources and services.